Waarnemingen

Advertentie
Mijn weer
Dax, Frankrijk (7603): temperatuur & dauwpunt: 18.02.2017 09:00:00 - 24.02.2017 09:00:00 (CET)Dax, Frankrijk (7603): temperatuur 5cm: 18.02.2017 09:00:00 - 24.02.2017 09:00:00 (CET)Dax, Frankrijk (7603): temperatuur -20cm & temperatuur -100cm: 18.02.2017 09:00:00 - 24.02.2017 09:00:00 (CET)Dax, Frankrijk (7603): windsnelheid & windstoten: 18.02.2017 09:00:00 - 24.02.2017 09:00:00 (CET)Dax, Frankrijk (7603): windrichting: 18.02.2017 09:00:00 - 24.02.2017 09:00:00 (CET)Dax, Frankrijk (7603): luchtdruk: 18.02.2017 09:00:00 - 24.02.2017 09:00:00 (CET)Dax, Frankrijk (7603): zicht: 18.02.2017 09:00:00 - 24.02.2017 09:00:00 (CET)Dax, Frankrijk (7603): Zonneschijnduur: 18.02.2017 09:00:00 - 24.02.2017 09:00:00 (CET)Dax, Frankrijk (7603): neerslag: 18.02.2017 09:00:00 - 24.02.2017 09:00:00 (CET)
Datum & Tijd tt [°C] td [°C] tt 5cm [°C] tt -20cm [°C] tt -100cm [°C] ff [km/u] ff [kn] fx [km/u] fx [kn] dd ppp [hPa] vv [km] sd [min] rr [mm]
24.02.2017 09:00:00 8,1 7,8 6,7 10,5 10,6 3 2 9 5 WNW 1020,3 6 0 0,0
24.02.2017 08:00:00 7,4 7,0 6,2 10,5 10,6 0 0 7 4 N 1019,3 9 0 0,0
24.02.2017 07:00:00 8,2 7,6 7,4 10,5 10,6 3 1 5 3 WZW 1018,8 10 0 0,0
24.02.2017 06:00:00 8,7 7,9 8,1 10,5 10,6 0 0 6 3 N 1018,8 10 0 0,0
24.02.2017 05:00:00 9,0 7,9 8,4 10,5 10,6 0 0 27 14 N 1018,0 4,2 0 0,4
24.02.2017 04:00:00 9,6 9,1 9,2 10,5 10,6 8 5 31 17 N 1017,8 2,8 0 0,8
24.02.2017 03:00:00 10,3 10,0 10,1 10,5 10,6 13 7 23 12 W 1017,8 1,6 0 2,0
24.02.2017 02:00:00 10,4 10,1 9,9 10,5 10,6 10 6 17 9 ZW 1017,3 1,3 0 0,0
24.02.2017 01:00:00 10,1 9,6 9,8 10,5 10,6 10 6 17 9 ZZW 1017,7 1,6 0 0,0
24.02.2017 00:00:00 10,4 9,3 9,9 10,6 10,6 9 5 19 11 ZZW 1017,8 3,1 0 0,0
23.02.2017 23:00:00 11,1 8,1 11,0 10,5 10,6 8 5 22 12 W 1018,0 15 0 0,0
23.02.2017 22:00:00 11,5 7,0 11,2 10,6 10,6 6 4 17 9 WZW 1018,1 19 0 0,0
23.02.2017 21:00:00 11,6 7,3 11,4 10,6 10,6 10 5 18 10 W 1017,4 14 0 0,0
23.02.2017 20:00:00 11,6 8,4 11,5 10,5 10,6 6 3 13 7 W 1016,9 12 0 0,0
23.02.2017 19:00:00 11,9 8,2 11,7 10,5 10,6 8 5 - - W 1016,6 12 0 0,0
23.02.2017 18:00:00 12,2 8,1 12,2 10,4 10,6 12 7 29 15 WNW 1016,0 14 0 0,0
23.02.2017 17:00:00 13,0 8,0 - - - 13 7 - - W - 5 - -
23.02.2017 16:00:00 12,8 9,1 13,2 10,3 10,6 12 6 29 16 WNW 1015,7 9 1 0,0
23.02.2017 15:00:00 13,5 8,8 14,2 10,2 10,6 16 9 30 16 W 1015,9 7 0 0,0
23.02.2017 14:00:00 13,8 8,8 14,4 10,1 10,6 17 9 32 17 W 1016,2 7 9 0,0
23.02.2017 13:00:00 13,4 9,3 13,1 10,0 10,5 16 9 29 16 W 1016,7 7 1 0,0
23.02.2017 12:00:00 12,4 9,9 11,8 10,0 10,5 9 5 26 14 W 1017,1 6 0 0,0
23.02.2017 11:00:00 11,6 10,2 10,7 10,0 10,5 11 6 23 12 W 1017,0 4,0 0 0,0
23.02.2017 10:00:00 10,3 10,1 9,9 10,0 10,5 11 6 26 14 W 1016,8 2,0 0 0,0
23.02.2017 09:00:00 9,8 9,8 8,0 10,0 10,5 10 5 20 11 WZW 1016,4 0,5 0 0,0
23.02.2017 08:00:00 7,8 7,8 6,9 10,0 10,5 0 0 5 3 N 1015,6 0,2 0 0,0
23.02.2017 07:00:00 6,8 6,8 6,0 10,1 10,5 0 0 4 2 N 1015,5 0,1 0 0,0
23.02.2017 06:00:00 6,0 6,0 5,6 10,1 10,5 3 1 5 3 ZO 1015,5 0,1 0 0,0
23.02.2017 05:00:00 5,6 5,5 5,3 10,1 10,6 0 0 3 1 N 1015,8 0,1 0 0,0
23.02.2017 04:00:00 5,4 5,3 5,3 10,2 10,5 2 1 4 2 Z 1016,2 0,1 0 0,0
23.02.2017 03:00:00 5,6 5,3 5,2 10,2 10,5 0 0 4 2 N 1016,7 0,1 0 0,0
23.02.2017 02:00:00 6,9 6,6 5,3 10,3 10,5 3 1 7 4 NO 1017,1 0,1 0 0,0
23.02.2017 01:00:00 7,6 7,2 6,6 10,3 10,5 4 2 11 6 NO 1017,5 2,3 0 0,0
23.02.2017 00:00:00 8,4 7,6 7,6 10,4 10,5 8 4 13 7 NO 1017,9 3,7 0 0,0
22.02.2017 23:00:00 9,2 8,0 7,4 10,5 10,5 4 2 9 5 NNO 1018,4 6 0 0,0
22.02.2017 22:00:00 9,8 8,4 8,4 10,5 10,5 4 2 8 5 NO 1019,0 8 0 0,0
22.02.2017 21:00:00 10,6 8,0 8,8 10,5 10,5 3 1 11 6 NO 1019,2 8 0 0,0
22.02.2017 20:00:00 13,3 9,4 11,0 10,5 10,5 8 5 13 7 NO 1019,4 15 0 0,0
22.02.2017 19:00:00 13,7 8,9 11,6 10,4 10,5 8 5 16 9 ONO 1019,4 13 21 0,0
22.02.2017 18:00:00 15,5 9,6 16,1 10,3 10,5 11 6 16 9 ONO 1019,6 22 60 0,0
22.02.2017 17:00:00 16,1 9,5 18,3 10,1 10,5 9 5 19 11 O 1020,1 15 60 0,0
22.02.2017 16:00:00 14,8 9,4 17,8 10,0 10,5 10 5 19 11 NNO 1020,7 10 60 0,0
22.02.2017 15:00:00 13,6 9,2 13,7 9,9 10,5 10 5 21 11 ONO 1021,6 10 33 0,0
22.02.2017 14:00:00 12,5 9,1 12,6 9,9 10,5 11 6 24 13 OZO 1022,6 8 9 0,0
22.02.2017 13:00:00 10,8 8,9 10,5 9,8 10,5 10 5 19 10 O 1023,7 9 0 0,0
22.02.2017 12:00:00 10,1 9,2 9,7 9,8 10,5 9 5 16 9 OZO 1024,2 4,0 0 0,0
22.02.2017 11:00:00 8,7 8,7 8,0 9,8 10,5 6 4 11 6 ZO 1024,4 3,3 0 0,0
22.02.2017 10:00:00 7,4 7,4 6,6 9,8 10,5 3 1 6 4 OZO 1024,5 1,7 0 0,0
22.02.2017 09:00:00 6,3 6,3 5,6 9,8 10,5 3 2 7 4 OZO 1024,6 1,6 0 0,0
22.02.2017 08:00:00 5,5 5,5 5,3 9,9 10,5 3 2 5 3 O 1024,4 0,6 0 0,0
22.02.2017 07:00:00 5,4 5,4 4,6 9,9 10,5 3 1 5 3 O 1024,1 0,2 0 0,0
22.02.2017 06:00:00 4,5 4,5 4,0 10,0 10,5 2 1 6 3 OZO 1024,5 0,2 0 0,0
22.02.2017 05:00:00 4,1 4,0 3,5 10,0 10,5 3 2 5 3 OZO 1024,6 0,1 0 0,0
22.02.2017 04:00:00 3,5 3,4 2,4 10,1 10,5 0 0 7 4 N 1025,0 0,2 0 0,0
22.02.2017 03:00:00 4,0 3,7 3,0 10,3 10,5 0 0 2 1 N 1025,4 0,2 0 0,0
22.02.2017 02:00:00 4,4 4,0 3,3 10,3 10,5 0 0 3 2 N 1025,7 2,3 0 0,0
22.02.2017 01:00:00 5,4 4,8 4,0 10,4 10,5 0 0 0 0 N 1025,9 6 0 0,0
22.02.2017 00:00:00 6,1 5,2 4,7 10,5 10,5 0 0 2 1 N 1025,9 7 0 0,0
21.02.2017 23:00:00 7,3 6,1 6,2 10,5 10,5 0 0 4 2 N 1025,7 7 0 0,0
21.02.2017 22:00:00 9,3 7,9 8,2 10,6 10,5 3 2 6 3 NNO 1025,8 15 0 0,0
21.02.2017 21:00:00 10,1 8,0 9,1 10,6 10,5 4 2 13 7 N 1025,8 20 0 0,0
21.02.2017 20:00:00 11,1 8,3 10,4 10,5 10,5 6 4 14 7 NNW 1025,6 24 0 0,0
21.02.2017 19:00:00 12,5 9,0 11,8 10,4 10,5 8 5 14 8 WNW 1025,4 17 20 0,0
21.02.2017 18:00:00 15,2 8,7 15,9 10,3 10,5 5 3 9 5 WNW 1025,0 20 50 0,0
21.02.2017 17:00:00 16,2 6,0 18,4 10,1 10,4 2 1 12 6 NO 1025,0 15 60 0,0
21.02.2017 16:00:00 16,5 6,0 19,1 9,9 10,4 4 2 9 5 W 1025,4 15 60 0,0
21.02.2017 15:00:00 15,6 5,8 19,4 9,7 10,5 3 1 9 5 NNO 1026,0 10 60 0,0
21.02.2017 14:00:00 15,2 5,9 17,8 9,6 10,4 3 2 13 7 ONO 1026,9 22 60 0,0
21.02.2017 13:00:00 14,9 6,5 17,7 9,5 10,4 2 1 8 4 O 1028,0 8 60 0,0
21.02.2017 12:00:00 12,5 7,0 15,2 9,5 10,4 0 0 5 3 N 1028,5 12 60 0,0
21.02.2017 11:00:00 9,6 6,9 7,9 9,5 10,4 0 0 7 4 N 1028,7 6 60 0,0
21.02.2017 10:00:00 5,2 5,1 3,6 9,5 10,4 2 1 5 3 ZO 1028,7 1,2 60 0,0
21.02.2017 09:00:00 2,3 2,2 0,8 9,6 10,4 0 0 4 2 N 1028,5 0,5 23 0,0
21.02.2017 08:00:00 1,5 1,4 0,5 9,7 10,4 3 1 6 3 ZZO 1028,2 0,2 0 0,0
21.02.2017 07:00:00 1,8 1,7 1,1 9,8 10,4 3 1 6 4 NNW 1027,9 0,1 0 0,0
21.02.2017 06:00:00 2,4 2,3 1,4 9,9 10,4 0 0 4 2 N 1027,8 0,1 0 0,0
21.02.2017 05:00:00 2,7 2,4 1,0 10,0 10,4 0 0 5 3 N 1027,9 0,2 0 0,0
21.02.2017 04:00:00 2,4 1,8 1,2 10,0 10,4 3 1 4 2 ZO 1028,3 7 0 0,0
21.02.2017 03:00:00 3,6 3,0 1,6 10,1 10,4 0 0 3 2 N 1028,6 8 0 0,0
21.02.2017 02:00:00 4,4 3,8 2,9 10,3 10,4 0 0 3 2 N 1029,0 6 0 0,0
21.02.2017 01:00:00 4,6 3,7 3,0 10,3 10,4 0 0 6 4 N 1029,1 7 0 0,0
21.02.2017 00:00:00 6,0 5,0 5,0 10,4 10,4 0 0 3 1 N 1028,9 8 0 0,0
20.02.2017 23:00:00 6,6 5,4 5,5 10,5 10,4 0 0 5 3 N 1029,0 9 0 0,0
20.02.2017 22:00:00 8,2 6,2 7,0 10,5 10,4 0 0 4 2 N 1029,0 10 0 0,0
20.02.2017 21:00:00 10,2 6,5 9,0 10,5 10,4 3 2 7 4 NW 1028,9 21 0 0,0
20.02.2017 20:00:00 11,4 6,9 11,0 10,5 10,4 5 3 9 5 NW 1028,6 23 0 0,0
20.02.2017 19:00:00 11,7 7,2 11,3 10,5 10,4 4 2 9 5 ZW 1028,2 17 0 0,0
20.02.2017 18:00:00 12,6 7,3 12,6 10,4 10,4 5 3 8 4 ZW 1028,1 19 0 0,0
20.02.2017 17:00:00 12,9 7,3 13,4 10,3 10,4 4 2 9 5 ZZW 1027,9 10 0 0,0
20.02.2017 16:00:00 12,9 6,7 13,3 10,3 10,4 4 2 12 6 WZW 1028,2 10 0 0,0
20.02.2017 15:00:00 12,8 7,0 13,5 10,1 10,4 7 4 12 7 W 1028,6 10 0 0,0
20.02.2017 14:00:00 13,0 6,3 13,4 10,1 10,3 6 3 12 6 ZZW 1029,0 8 0 0,0
20.02.2017 13:00:00 12,9 7,1 13,8 10,0 10,4 3 2 9 5 W 1029,5 8 0 0,0
20.02.2017 12:00:00 12,1 8,9 12,1 10,0 10,3 0 0 9 5 N 1029,6 6 0 0,0
20.02.2017 11:00:00 10,7 8,8 10,1 10,0 10,4 2 1 9 5 ZZW 1029,7 4,5 0 0,0
20.02.2017 10:00:00 9,5 8,6 9,1 10,0 10,3 7 4 11 6 ZZO 1029,4 4,0 0 0,0
20.02.2017 09:00:00 9,0 8,4 7,8 10,0 10,3 4 2 9 5 Z 1029,4 4,0 0 0,0
20.02.2017 08:00:00 7,9 7,3 7,8 10,0 10,3 6 3 10 5 ZZO 1028,9 3,0 0 0,0
20.02.2017 07:00:00 8,2 7,6 7,9 10,0 10,3 0 0 4 2 N 1028,9 2,8 0 0,0
20.02.2017 06:00:00 8,1 7,5 7,8 10,0 10,3 0 0 7 4 N 1028,6 3,1 0 0,0
20.02.2017 05:00:00 8,3 7,9 7,8 10,1 10,3 0 0 7 4 N 1028,8 3,9 0 0,0
20.02.2017 04:00:00 8,0 7,4 7,7 10,1 10,3 0 0 5 3 N 1028,8 3,5 0 0,0
20.02.2017 03:00:00 8,4 8,0 7,8 10,1 10,3 0 0 8 5 N 1029,4 4,0 0 0,0
20.02.2017 02:00:00 8,5 8,2 7,7 10,1 10,3 0 0 7 4 N 1029,5 4,0 0 0,0
20.02.2017 01:00:00 7,8 7,4 7,2 10,2 10,3 2 1 5 3 ZZO 1029,6 3,3 0 0,0
20.02.2017 00:00:00 8,0 7,7 5,5 10,3 10,3 4 2 7 4 Z 1029,9 2,9 0 0,0
19.02.2017 23:00:00 7,0 6,7 4,9 10,4 10,3 4 2 6 3 Z 1029,8 2,0 0 0,0
19.02.2017 22:00:00 7,5 6,8 5,2 10,4 10,3 2 1 5 3 WZW 1029,1 2,1 0 0,0
19.02.2017 21:00:00 8,9 7,8 7,8 10,4 10,3 2 1 8 5 WNW 1028,9 4,8 0 0,0
19.02.2017 20:00:00 9,9 8,5 9,2 10,4 10,3 6 3 14 8 W 1028,6 7 0 0,0
19.02.2017 19:00:00 11,2 8,6 10,7 10,4 10,3 9 5 15 8 WNW 1028,5 11 17 0,0
19.02.2017 18:00:00 12,8 8,5 13,3 10,3 10,3 9 5 22 12 NW 1027,8 17 41 0,0
19.02.2017 17:00:00 14,3 7,6 15,3 10,1 10,3 13 7 24 13 WNW 1027,8 19 49 0,0
19.02.2017 16:00:00 15,6 6,6 18,1 9,9 10,3 14 7 27 14 WNW 1027,5 19 60 0,0
19.02.2017 15:00:00 15,8 8,0 16,1 9,8 10,3 13 7 22 12 NW 1027,7 20 37 0,0
19.02.2017 14:00:00 14,6 9,8 15,0 9,7 10,3 5 3 18 10 W 1028,0 13 13 0,0
19.02.2017 13:00:00 14,2 9,6 14,3 9,6 10,3 9 5 19 10 WNW 1028,5 12 11 0,0
19.02.2017 12:00:00 12,9 9,9 12,7 9,5 10,3 11 6 22 12 W 1028,8 8 25 0,0
19.02.2017 11:00:00 10,7 10,5 10,3 9,5 10,3 4 2 9 5 WNW 1028,8 3,9 4 0,0
19.02.2017 10:00:00 9,4 9,4 8,5 9,5 10,3 0 0 5 3 N 1028,3 1,4 0 0,0
19.02.2017 09:00:00 8,2 8,2 6,2 9,6 10,3 0 0 5 3 N 1027,6 0,2 0 0,0
19.02.2017 08:00:00 6,3 6,2 6,1 9,6 10,3 3 2 6 3 ZZO 1027,0 0,1 0 0,0
19.02.2017 07:00:00 6,0 5,9 3,7 9,7 10,3 3 2 7 4 WZW 1026,5 1,7 0 0,0
19.02.2017 06:00:00 5,4 4,7 3,7 9,7 10,3 0 0 3 2 N 1025,9 2,3 0 0,0
19.02.2017 05:00:00 6,8 6,2 5,1 9,7 10,3 0 0 3 2 N 1025,4 2,8 0 0,0
19.02.2017 04:00:00 7,4 7,0 6,4 9,8 10,3 2 1 6 3 ZZW 1024,7 2,5 0 0,0
19.02.2017 03:00:00 7,2 6,9 6,3 9,8 10,2 4 2 6 3 Z 1024,5 2,4 0 0,0
19.02.2017 02:00:00 6,5 6,2 5,1 9,9 10,3 3 2 6 4 ZO 1024,3 2,3 0 0,0
19.02.2017 01:00:00 6,4 6,0 4,9 10,0 10,2 0 0 4 2 N 1024,0 0,1 0 0,0
19.02.2017 00:00:00 7,2 6,8 5,1 10,0 10,3 3 2 4 2 ZZW 1023,5 2,6 0 0,0
18.02.2017 23:00:00 8,1 7,3 6,9 10,1 10,2 0 0 6 3 N 1023,3 3,8 0 0,0
18.02.2017 22:00:00 8,4 7,3 6,8 10,1 10,3 4 2 8 5 ZZW 1022,8 3,2 0 0,0
18.02.2017 21:00:00 9,9 8,5 9,2 10,1 10,3 4 2 14 7 W 1022,5 8 0 0,0
18.02.2017 20:00:00 10,6 8,7 10,0 10,0 10,2 8 4 14 8 W 1021,9 6 0 0,0
18.02.2017 19:00:00 11,1 8,7 10,6 10,0 10,3 8 4 19 10 W 1021,7 4,8 8 0,0
18.02.2017 18:00:00 13,7 9,1 13,8 9,8 10,3 9 5 20 11 W 1020,8 8 60 0,0
18.02.2017 17:00:00 15,8 9,7 16,9 9,7 10,3 12 6 20 11 W 1020,4 11 60 0,0
18.02.2017 16:00:00 16,9 9,3 18,5 9,5 10,2 11 6 21 12 W 1020,2 14 60 0,0
18.02.2017 15:00:00 17,4 9,6 19,6 9,2 10,2 10 5 19 10 WZW 1020,3 11 60 0,0
18.02.2017 14:00:00 17,4 8,5 19,1 9,1 10,2 4 2 12 7 WZW 1020,9 9 60 0,0
18.02.2017 13:00:00 16,0 7,7 16,4 9,0 10,3 0 0 9 5 N 1021,6 8 60 0,0
18.02.2017 12:00:00 12,2 5,8 15,0 9,0 10,2 3 2 7 4 NW 1022,4 7 60 0,0
18.02.2017 11:00:00 10,1 5,1 9,6 9,0 10,2 0 0 3 2 N 1022,4 4,3 60 0,0
18.02.2017 10:00:00 6,4 3,9 4,9 9,1 10,2 0 0 6 4 N 1022,4 4,9 60 0,0
18.02.2017 09:00:00 2,9 2,3 0,3 9,2 10,2 4 2 8 5 ONO 1022,2 2,4 40 0,0

tt = temperatuur
td = dauwpunt
tt 5cm = temperatuur 5cm
tt -20cm = temperatuur -20cm
tt -100cm = temperatuur -100cm
ff = windsnelheid
fx = windstoten
dd = windrichting
ppp = luchtdruk
vv = zicht
sd = Zonneschijnduur
rr = neerslag

Weerstations in de omgeving